Weather History for Palm Springs, CA

Change the Weather History Date:

Wednesday, February 27, 2013

  Actual Average Record
Temperature  
Mean Temperature 59 °F 62 °F  
Max Temperature 72 °F 75 °F 99 °F (1986)
Min Temperature 45 °F 50 °F 32 °F (1939)
Degree Days  
Heating Degree Days 6 4  
Month to date heating degree days 161 149  
Since 1 July heating degree days 737 776  
Cooling Degree Days 0 1  
Month to date cooling degree days 11 26  
Year to date cooling degree days 12 34  
Growing Degree Days 9 (Base 50)    
Moisture  
Dew Point 11 °F    
Average Humidity 19    
Maximum Humidity 31    
Minimum Humidity 7    
Precipitation  
Precipitation 0.00 in 0.03 in 0.58 in (2001)
Month to date precipitation 0.32 0.99  
Year to date precipitation 0.93 1.99  
Since 1 July precipitation 2.15 4.79  
Snow  
Snow 0.00 in - - ()
Month to date snowfall 0.0  
Year to date snowfall 0.0  
Since 1 July snowfall 0.0  
Snow Depth 0.00 in    
Sea Level Pressure  
Sea Level Pressure 30.25 in    
Wind  
Wind Speed 3 mph (West)    
Max Wind Speed 9 mph    
Max Gust Speed 13 mph    
Visibility 10 miles    
Events      
T = Trace of Precipitation, MM = Missing Value Source: NWS Daily Summary

Daily Weather History Graph

Daily Weather History Graph

Search for Another Location

Airport:

Trip Planner

Search our weather history database for the weather conditions in past years. The results will help you decide how hot, cold, wet, or windy it might be!

Date:

Astronomy

Feb. 27, 2013 Rise Set
Actual Time 6:16 AM PST 5:41 PM PST
Civil Twilight 5:51 AM PST 6:06 PM PST
Nautical Twilight 5:22 AM PST 6:35 PM PST
Astronomical Twilight 4:53 AM PST 7:04 PM PST
Moon 7:57 PM PST (2/27) 7:02 AM PST (2/27)
Length of Visible Light 12h 14m
Length of Day
11h 24m
Waning Gibbous, 96% of the Moon is Illuminated
Feb 27
Waning Gibbous
Mar 4
Last Quarter
Mar 11
New
Mar 19
First Quarter
Mar 27
Full

Hourly Weather History & Observations

Time (PST) Temp. Windchill Dew Point Humidity Pressure Visibility Wind Dir Wind Speed Gust Speed Precip Events Conditions
12:53 AM 53.1 °F - 12.9 °F 20% 30.19 in 10.0 mi WNW 5.8 mph - N/A   Clear
1:53 AM 52.0 °F - 12.9 °F 21% 30.21 in 10.0 mi West 5.8 mph - N/A   Clear
2:53 AM 51.1 °F - 15.1 °F 24% 30.21 in 10.0 mi WSW 5.8 mph - N/A   Clear
3:53 AM 48.0 °F - 18.0 °F 30% 30.22 in 10.0 mi NNW 6.9 mph - N/A   Clear
4:53 AM 48.9 °F - 15.1 °F 26% 30.24 in 10.0 mi West 3.5 mph - N/A   Clear
5:53 AM 46.0 °F 43.1 °F 17.1 °F 31% 30.25 in 10.0 mi NNW 5.8 mph - N/A   Clear
6:53 AM 48.9 °F - 17.1 °F 28% 30.26 in 10.0 mi Calm Calm - N/A   Clear
7:53 AM 54.0 °F - 17.1 °F 23% 30.29 in 10.0 mi NW 4.6 mph - N/A   Clear
8:53 AM 60.1 °F - 12.0 °F 15% 30.30 in 10.0 mi Calm Calm - N/A   Clear
9:53 AM 63.0 °F - 9.0 °F 12% 30.29 in 10.0 mi SSE 4.6 mph - N/A   Clear
10:53 AM 64.9 °F - 8.1 °F 11% 30.29 in 10.0 mi Calm Calm - N/A   Clear
11:53 AM 66.9 °F - 8.1 °F 10% 30.27 in 10.0 mi SE 4.6 mph - N/A   Clear
12:53 PM 68.0 °F - 8.1 °F 10% 30.25 in 10.0 mi Calm Calm - N/A   Clear
1:53 PM 70.0 °F - 8.1 °F 9% 30.22 in 10.0 mi Calm Calm - N/A   Clear
2:53 PM 71.1 °F - 3.0 °F 7% 30.22 in 10.0 mi Variable 3.5 mph - N/A   Clear
3:53 PM 72.0 °F - 1.9 °F 6% 30.20 in 10.0 mi ENE 9.2 mph - N/A   Clear
4:53 PM 71.1 °F - 1.9 °F 7% 30.21 in 10.0 mi ENE 3.5 mph - N/A   Clear
5:53 PM 66.0 °F - 10.0 °F 11% 30.21 in 10.0 mi SSW 5.8 mph - N/A   Clear
6:53 PM 63.0 °F - 12.9 °F 14% 30.23 in 10.0 mi NNE 3.5 mph - N/A   Clear
7:53 PM 62.1 °F - 10.9 °F 13% 30.26 in 10.0 mi WSW 3.5 mph - N/A   Clear
8:53 PM 59.0 °F - 10.9 °F 15% 30.29 in 10.0 mi WSW 3.5 mph - N/A   Clear
9:53 PM 59.0 °F - 10.0 °F 14% 30.30 in 10.0 mi Variable 4.6 mph - N/A   Clear
11:53 PM 60.1 °F - 7.0 °F 12% 30.30 in 10.0 mi SW 5.8 mph - N/A   Clear